Location: Góry Miechowskie
(50.3599°N, 20.1803°E)
Time: 01:03:58
(UTC+00:00)

Cosmos 2228 - Visible Passes

Search period start: 18 September 2024 00:00
Search period end: 28 September 2024 00:00
Orbit: 575 x 601 km, 82.5° (Epoch: 17 September)

Date Brightness Start Highest point End Pass type
(mag) Time Alt. Az. Time Alt. Az. Time Alt. Az.
18 Sep 3.6 01:20:03 54° NNE 01:20:03 54° NNE 01:23:28 10° NNE visible
18 Sep 4.8 02:56:34 14° WNW 02:56:59 14° WNW 02:59:22 10° NNW visible
18 Sep 6.0 23:51:25 11° ENE 23:51:25 11° ENE 23:51:58 10° ENE visible
19 Sep 3.7 01:27:56 48° N 01:27:56 48° N 01:31:06 10° N visible
19 Sep 5.1 03:04:28 11° WNW 03:04:50 11° WNW 03:05:50 10° NW visible
19 Sep 5.8 23:59:16 14° ENE 23:59:16 14° ENE 00:00:25 10° NE visible
20 Sep 4.0 01:35:48 37° NNW 01:35:48 37° NNW 01:38:39 10° N visible
21 Sep 5.7 00:07:05 17° NE 00:07:05 17° NE 00:08:29 10° NE visible
21 Sep 4.4 01:43:37 29° NNW 01:43:37 29° NNW 01:46:07 10° N visible
22 Sep 5.6 00:14:53 19° NE 00:14:53 19° NE 00:16:21 10° NNE visible
22 Sep 4.7 01:51:24 22° NNW 01:51:24 22° NNW 01:53:30 10° N visible
23 Sep 5.5 00:22:38 20° NNE 00:22:38 20° NNE 00:24:05 10° NNE visible
23 Sep 5.0 01:59:09 17° NW 01:59:09 17° NW 02:00:46 10° NNW visible
24 Sep 5.5 00:30:21 20° NNE 00:30:21 20° NNE 00:31:43 10° NNE visible
24 Sep 5.3 02:06:52 13° NW 02:06:52 13° NW 02:07:52 10° NNW visible
25 Sep 5.5 00:38:03 19° N 00:38:03 19° N 00:39:17 10° N visible
25 Sep 5.5 02:14:34 10° NW 02:14:34 10° NW 02:14:37 10° NW visible
26 Sep 5.5 00:45:43 17° N 00:45:43 17° N 00:46:46 10° N visible
27 Sep 5.6 00:53:22 15° N 00:53:22 15° N 00:54:11 10° N visible
